[[{"header":{"parameterUnit":"m.s-1","parameterCategory":1,"la1":30.2991,"la2":30.254,"lo1":-89.0895,"lo2":-89.0444,"dy":0.0017,"dx":0.0017,"nx":28,"ny":28,"refTime":"2023-08-27T21:00:00:Z","depth":0,"parameterNumber":2,"parameterNumberName":"U-component_of_WINDS"},"data":[0,0,0,0,0,0,0,0,0,0,0,0,0,0,0,0,0,0,0,0,0,0,0,0,0,0,0,0,0,0,0,0,0,0,0,0,0,0,0,0,0,0,0,0,0,0,0,0,0,0,0,0,0,0,0,0,0,0,-1.9208,-1.9209,0,-1.9294,-1.9295,-1.9296,-1.9256,-1.9253,-1.9251,-1.9249,-1.9341,-1.9346,-1.935,0,0,0,0,0,0,0,0,0,0,0,0,0,-1.9012,-1.9016,-1.9208,-1.9209,-1.921,-1.9294,-1.9296,-1.9297,-1.9256,-1.9253,-1.9251,-1.9248,-1.934,-1.9345,-1.935,0,0,0,0,0,0,0,0,0,0,0,0,0,-1.9098,-1.9017,-1.9208,-1.92,-1.92,-1.9294,-1.9296,-1.9297,-1.9257,-1.9253,-1.925,-1.9247,-1.9338,-1.9345,-1.9351,-1.9459,0,0,-1.9372,-1.9375,0,0,0,0,0,0,0,0,-1.9093,-1.9105,-1.92,-1.9201,-1.9201,-1.9261,-1.926,-1.9352,-1.9257,-1.9235,-1.9249,-1.9245,-1.9317,-1.9326,-1.9349,-1.9463,-1.9467,-1.9372,-1.9377,-1.9379,-1.9381,0,0,0,0,0,0,0,-1.9087,-1.9101,-1.9242,-1.9202,-1.9202,-1.9193,-1.9202,-1.9277,-1.9294,-1.9237,-1.9234,-1.9245,-1.9317,-1.9343,-1.9351,-1.9469,-1.9372,-1.9378,-1.9382,-1.9385,-1.9678,-1.9682,0,0,0,0,0,0,-1.9081,-1.9096,-1.924,-1.9245,-1.9138,-1.92,-1.9209,-1.9245,-1.9293,-1.9297,-1.9248,-1.9243,-1.9333,-1.9343,-1.9354,-1.9485,-1.9379,-1.9386,-1.939,-1.9674,-1.9679,-1.9683,0,0,0,0,0,0,-1.9077,-1.9094,-1.9236,-1.917,-1.9187,-1.9207,-1.9247,-1.9249,-1.9274,-1.9301,-1.9304,-1.9271,-1.9331,-1.9345,-1.9434,-1.9488,-1.9389,-1.9395,-1.967,-1.9676,-1.9681,-1.9748,0,0,0,0,0,0,-1.9071,-1.9093,-1.9133,-1.9171,-1.9191,-1.9313,-1.925,-1.9253,-1.9285,-1.928,-1.9323,-1.9327,-1.9329,-1.9424,-1.944,-1.9496,-1.94,-1.9665,-1.9673,-1.9679,-1.9741,-1.9755,-1.9767,0,0,0,0,0,-1.9064,-1.9149,-1.9135,-1.9153,-1.9241,-1.9316,-1.9328,-1.9327,-1.929,-1.9331,-1.9349,-1.9326,-1.9479,-1.9433,-1.9451,-1.951,-1.9662,-1.9671,-1.9679,-1.9735,-1.9752,-1.9767,0,0,0,0,0,0,-1.9117,-1.9153,-1.9139,-1.9238,-1.9274,-1.9309,-1.9361,-1.9345,-1.9393,-1.9386,-1.9384,-1.9395,-1.9487,-1.9507,-1.9455,-1.9618,-1.9565,-1.9578,-1.9602,-1.9618,-1.9631,-1.9625,-1.9406,0,0,0,0,0,-1.914,-1.9196,-1.9225,-1.931,-1.9329,-1.9342,-1.9374,-1.9371,-1.9409,-1.9424,-1.9448,-1.9487,-1.9544,-1.9582,-1.9636,-1.9743,-1.9753,-1.9792,-1.9805,-1.9816,-1.9827,-1.9888,-1.9906,-1.9711,-1.9711,-1.971,0,0,-1.9188,-1.9215,-1.9251,-1.9321,-1.9349,-1.9409,-1.9355,-1.9421,-1.9466,-1.9435,-1.952,-1.9539,-1.9583,-1.9682,-1.9727,-1.9702,-1.9883,-1.9827,-1.9835,-1.9841,-1.9899,-1.9917,-1.9934,-1.9716,-1.9715,-1.9714,0,0,-1.9307,-1.9332,-1.9406,-1.9435,-1.9478,-1.9486,-1.9504,-1.9542,-1.9553,-1.9639,-1.9617,-1.9672,-1.9769,-1.9802,-1.9831,-1.9964,-1.9946,-1.9981,-2.0051,-2.011,-2.0125,-2.0139,-2.0189,-2.0206,-1.9992,-1.9992,-1.9993,0,-1.9363,-1.9451,-1.9447,-1.9515,-1.9547,-1.952,-1.9597,-1.9625,-1.9684,-1.9708,-1.9678,-1.9801,-1.9828,-1.9936,-1.9968,-1.9992,-2.0014,-1.9977,-2.0123,-2.0137,-2.015,-2.0197,-2.0215,-1.9997,-1.9996,-1.9996,-1.9995,0,-1.9518,-1.958,-1.9635,-1.9691,-1.973,-1.9801,-1.9809,-1.9849,-1.9842,-1.9854,-1.9943,-1.9975,-2.0036,-2.006,-2.0054,-2.0168,-2.0151,-2.0122,-2.007,-2.0173,-2.0217,-2.0235,-2.0003,-2.0001,-2.0,-1.9999,0,0,-1.9673,-1.9727,-1.9747,-1.9774,-1.9819,-1.9868,-1.9939,-1.9997,-2.0032,-2.0073,-2.0135,-2.0218,-2.0192,-2.0226,-2.0223,-2.0275,-2.0381,-2.024,-2.0241,-2.0267,-2.0511,-2.0534,-2.0555,-2.0368,-2.0372,-2.0374,-2.0508,0,-1.9797,-1.9921,-1.992,-2.0035,-2.0093,-2.0069,-2.0132,-2.0167,-2.0181,-2.0233,-2.0248,-2.0309,-2.0268,-2.0289,-2.0338,-2.0357,-2.043,-2.0347,-2.0428,-2.0431,-2.042,-2.0578,-2.0602,-2.0727,-2.0525,-2.0528,-2.053,0,-1.9959,-2.0005,-2.0126,-2.0164,-2.0189,-2.0245,-2.0299,-2.0349,-2.039,-2.0396,-2.0434,-2.0424,-2.0498,-2.0442,-2.0546,-2.049,-2.0522,-2.0537,-2.0542,-2.0551,-2.0488,-2.0594,-2.0766,-2.0786,-2.0557,-2.0555,-2.0553,0,-2.0063,-2.0155,-2.024,-2.0263,-2.0309,-2.035,-2.0371,-2.0408,-2.0444,-2.0492,-2.0516,-2.0572,-2.0603,-2.0648,-2.0654,-2.0612,-2.076,-2.0703,-2.0769,-2.0769,-2.0803,-2.0801,-2.0985,-2.082,-2.082,-2.0819,-2.0819,0,-2.0203,-2.0278,-2.0288,-2.034,-2.0425,-2.0423,-2.0507,-2.0525,-2.0559,-2.0616,-2.0598,-2.0652,-2.0656,-2.0712,-2.0717,-2.0804,-2.0818,-2.0827,-2.0828,-2.083,-2.0829,-2.0853,-2.0845,-2.0824,-2.0823,-2.0822,-2.0821,0,-2.0334,-2.0343,-2.0434,-2.0471,-2.0482,-2.0543,-2.0575,-2.0626,-2.0637,-2.071,-2.0727,-2.0745,-2.0811,-2.0821,-2.0897,-2.0901,-2.1006,-2.0997,-2.0992,-2.0992,-2.1058,-2.1053,-2.1266,-2.1295,-2.1108,-2.111,-2.1112,0,-2.0424,-2.0481,-2.0524,-2.056,-2.0584,-2.0643,-2.0679,-2.068,-2.0719,-2.077,-2.0816,-2.0879,-2.093,-2.1036,-2.1058,-2.1117,-2.111,-2.1181,-2.1119,-2.112,-2.1115,-2.1112,-2.1119,-2.1194,-2.1196,-2.1197,-2.1199,0,-2.0583,-2.0585,-2.0637,-2.0693,-2.0737,-2.078,-2.0821,-2.0852,-2.0859,-2.0904,-2.097,-2.1009,-2.1088,-2.1152,-2.1211,-2.1234,-2.122,-2.1218,-2.1237,-2.124,-2.1237,-2.1242,-2.1027,-2.1213,-2.1212,-2.1211,-2.121,-2.1209,-2.0698,-2.0749,-2.0787,-2.0847,-2.0878,-2.0917,-2.0967,-2.0985,-2.104,-2.1103,-2.1101,-2.1174,-2.1215,-2.1292,-2.132,-2.1379,-2.1357,-2.1383,-2.139,-2.1398,-2.1405,-2.1225,-2.139,-2.1389,-2.1389,-2.1388,-2.1388,0,-2.0859,-2.0882,-2.0937,-2.0995,-2.1043,-2.1022,-2.1067,-2.1109,-2.1173,-2.1212,-2.1262,-2.134,-2.1402,-2.1429,-2.149,-2.1533,-2.1527,-2.1549,-2.1547,-2.1554,-2.1421,-2.1399,-2.1552,-2.1552,-2.1552,-2.1552,-2.1552,-2.1552,-2.0948,-2.1034,-2.104,-2.1142,-2.1165,-2.1236,-2.1264,-2.1301,-2.1332,-2.1419,-2.147,-2.1486,-2.1521,-2.1586,-2.1643,-2.1649,-2.1674,-2.17,-2.1703,-2.1579,-2.1563,-2.1547,-2.1527,-2.1704,-2.1705,-2.1832,-2.1833,-2.1834]},{"header":{"parameterUnit":"m.s-1","parameterCategory":1,"la1":30.2991,"la2":30.254,"lo1":-89.0895,"lo2":-89.0444,"dy":0.0017,"dx":0.0017,"nx":28,"ny":28,"refTime":"2023-08-27T21:00:00:Z","depth":0,"parameterNumber":3,"parameterNumberName":"V-component_of_WINDS"},"data":[0,0,0,0,0,0,0,0,0,0,0,0,0,0,0,0,0,0,0,0,0,0,0,0,0,0,0,0,0,0,0,0,0,0,0,0,0,0,0,0,0,0,0,0,0,0,0,0,0,0,0,0,0,0,0,0,0,0,-2.6223,-2.6223,0,-2.6207,-2.6207,-2.6206,-2.6144,-2.6143,-2.6141,-2.614,-2.6125,-2.6125,-2.6126,0,0,0,0,0,0,0,0,0,0,0,0,0,-2.62,-2.6201,-2.6223,-2.6223,-2.6222,-2.6207,-2.6207,-2.6206,-2.6144,-2.6143,-2.6141,-2.6139,-2.6124,-2.6125,-2.6126,0,0,0,0,0,0,0,0,0,0,0,0,0,-2.62,-2.6201,-2.6223,-2.6189,-2.6186,-2.6207,-2.6207,-2.6206,-2.6145,-2.6142,-2.614,-2.6138,-2.6124,-2.6125,-2.6127,-2.6178,0,0,-2.6131,-2.6131,0,0,0,0,0,0,0,0,-2.62,-2.6201,-2.6195,-2.6192,-2.6188,-2.6175,-2.6193,-2.6197,-2.6145,-2.6161,-2.614,-2.6137,-2.6143,-2.6143,-2.6145,-2.6178,-2.6177,-2.6131,-2.6132,-2.6132,-2.6133,0,0,0,0,0,0,0,-2.62,-2.6201,-2.6216,-2.6195,-2.6191,-2.6176,-2.6173,-2.6193,-2.6164,-2.6159,-2.6154,-2.6153,-2.6141,-2.6143,-2.6144,-2.6177,-2.6131,-2.6132,-2.6133,-2.6134,-2.6253,-2.6255,0,0,0,0,0,0,-2.6205,-2.6201,-2.6217,-2.6216,-2.6189,-2.6178,-2.6175,-2.6182,-2.6164,-2.6159,-2.6155,-2.615,-2.6142,-2.6142,-2.6143,-2.6204,-2.6132,-2.6134,-2.6135,-2.625,-2.6253,-2.6256,0,0,0,0,0,0,-2.6204,-2.6207,-2.6218,-2.6207,-2.6208,-2.618,-2.6188,-2.6182,-2.6185,-2.6161,-2.6155,-2.6163,-2.614,-2.6141,-2.617,-2.6202,-2.6134,-2.6136,-2.6248,-2.6251,-2.6254,-2.6325,0,0,0,0,0,0,-2.6204,-2.6207,-2.6226,-2.6208,-2.6208,-2.6245,-2.619,-2.6184,-2.6187,-2.6181,-2.6167,-2.6162,-2.6139,-2.6169,-2.6172,-2.6203,-2.6137,-2.6245,-2.6249,-2.6253,-2.6319,-2.633,-2.6339,0,0,0,0,0,-2.6203,-2.6246,-2.6227,-2.623,-2.6232,-2.6247,-2.6247,-2.6219,-2.619,-2.6209,-2.6194,-2.6163,-2.6198,-2.6172,-2.6175,-2.6207,-2.6242,-2.6248,-2.6253,-2.6315,-2.6328,-2.6339,0,0,0,0,0,0,-2.6269,-2.6244,-2.6222,-2.6261,-2.6257,-2.6236,-2.626,-2.6233,-2.6237,-2.6231,-2.6196,-2.6194,-2.6228,-2.622,-2.6192,-2.6257,-2.6215,-2.6221,-2.6261,-2.6273,-2.6283,-2.6285,-2.6138,0,0,0,0,0,-2.6288,-2.6302,-2.6279,-2.6315,-2.6314,-2.6288,-2.6293,-2.6272,-2.6266,-2.6264,-2.6251,-2.6247,-2.6257,-2.6264,-2.6272,-2.6317,-2.6314,-2.6341,-2.6351,-2.6359,-2.6365,-2.639,-2.6402,-2.6273,-2.6273,-2.6273,0,0,-2.6327,-2.6315,-2.6326,-2.6328,-2.6322,-2.6338,-2.6287,-2.6305,-2.6317,-2.6267,-2.6294,-2.6284,-2.6277,-2.6315,-2.6331,-2.6309,-2.64,-2.6366,-2.6372,-2.6374,-2.6396,-2.6409,-2.6419,-2.6276,-2.6276,-2.6275,0,0,-2.6408,-2.6399,-2.6429,-2.6424,-2.6416,-2.6398,-2.6405,-2.6389,-2.6381,-2.6407,-2.637,-2.6383,-2.6401,-2.6398,-2.6399,-2.6478,-2.645,-2.6482,-2.6534,-2.6558,-2.6569,-2.6578,-2.6607,-2.6618,-2.6487,-2.6488,-2.6488,0,-2.6458,-2.648,-2.6448,-2.6469,-2.6472,-2.6426,-2.6457,-2.6454,-2.6449,-2.6452,-2.6427,-2.6449,-2.6441,-2.6478,-2.6498,-2.6499,-2.6507,-2.6484,-2.657,-2.6578,-2.6586,-2.6614,-2.6625,-2.6492,-2.6491,-2.6491,-2.649,0,-2.6543,-2.6559,-2.6584,-2.658,-2.6585,-2.6611,-2.6583,-2.6592,-2.657,-2.6555,-2.6583,-2.6572,-2.6577,-2.6584,-2.6562,-2.6618,-2.6605,-2.6576,-2.6533,-2.6603,-2.6629,-2.6639,-2.6497,-2.6496,-2.6495,-2.6494,0,0,-2.6665,-2.6643,-2.6653,-2.6651,-2.6639,-2.6651,-2.6674,-2.6679,-2.6688,-2.6686,-2.6706,-2.6722,-2.6695,-2.6696,-2.6674,-2.6695,-2.676,-2.6663,-2.6662,-2.6683,-2.6822,-2.6846,-2.6859,-2.6741,-2.6742,-2.6744,-2.6823,0,-2.6743,-2.6783,-2.6754,-2.6799,-2.6814,-2.6771,-2.6792,-2.6787,-2.6773,-2.6784,-2.6769,-2.6781,-2.6744,-2.6744,-2.6763,-2.6748,-2.6788,-2.6742,-2.676,-2.6761,-2.6765,-2.6872,-2.6896,-2.6972,-2.6833,-2.6835,-2.6836,0,-2.6839,-2.6841,-2.6888,-2.6873,-2.6878,-2.6897,-2.69,-2.691,-2.6904,-2.6892,-2.6894,-2.6866,-2.6889,-2.6846,-2.6878,-2.6847,-2.6853,-2.6847,-2.6849,-2.6851,-2.6804,-2.6878,-2.6995,-2.7007,-2.6851,-2.685,-2.6849,0,-2.6926,-2.694,-2.697,-2.6969,-2.6952,-2.6967,-2.696,-2.6952,-2.6957,-2.6959,-2.6962,-2.6967,-2.697,-2.6974,-2.6949,-2.692,-2.6985,-2.6939,-2.6977,-2.6978,-2.6994,-2.6994,-2.7115,-2.6995,-2.6995,-2.6995,-2.6994,0,-2.7016,-2.7047,-2.7009,-2.7027,-2.706,-2.7027,-2.7061,-2.705,-2.7042,-2.7059,-2.7021,-2.7037,-2.7002,-2.7014,-2.6994,-2.7025,-2.7026,-2.7018,-2.7013,-2.7023,-2.7024,-2.7027,-2.7022,-2.6998,-2.6997,-2.6996,-2.6996,0,-2.712,-2.7095,-2.7125,-2.7106,-2.7102,-2.7127,-2.7111,-2.7128,-2.7111,-2.7132,-2.7135,-2.711,-2.7122,-2.7097,-2.7106,-2.7093,-2.7136,-2.7122,-2.7139,-2.7135,-2.7175,-2.7172,-2.7304,-2.732,-2.7188,-2.7189,-2.719,0,-2.718,-2.7203,-2.7186,-2.7194,-2.719,-2.7203,-2.7208,-2.7176,-2.7183,-2.7177,-2.7195,-2.7204,-2.721,-2.7233,-2.7216,-2.7223,-2.7209,-2.7255,-2.721,-2.722,-2.7212,-2.7212,-2.7215,-2.7265,-2.7266,-2.7268,-2.7269,0,-2.7291,-2.7277,-2.7286,-2.729,-2.7297,-2.7299,-2.7298,-2.7307,-2.7273,-2.7282,-2.7295,-2.73,-2.7309,-2.732,-2.7323,-2.7316,-2.7288,-2.7283,-2.7292,-2.7303,-2.7313,-2.731,-2.7166,-2.728,-2.7279,-2.7278,-2.7278,-2.7277,-2.7375,-2.7394,-2.7385,-2.7396,-2.7392,-2.7392,-2.7407,-2.7392,-2.7402,-2.7407,-2.7388,-2.7405,-2.7398,-2.7399,-2.7396,-2.7409,-2.7389,-2.7402,-2.7406,-2.741,-2.7417,-2.7309,-2.741,-2.7409,-2.7409,-2.7409,-2.7408,0,-2.7485,-2.7478,-2.7488,-2.7488,-2.7497,-2.7467,-2.7465,-2.7475,-2.749,-2.7486,-2.7493,-2.7508,-2.7517,-2.7501,-2.7508,-2.7522,-2.7509,-2.7525,-2.7525,-2.7524,-2.7434,-2.7426,-2.7536,-2.7536,-2.7536,-2.7536,-2.7536,-2.7536,-2.7544,-2.7574,-2.756,-2.7587,-2.7579,-2.7596,-2.7597,-2.7597,-2.7594,-2.7612,-2.762,-2.7609,-2.76,-2.7606,-2.7614,-2.7609,-2.7614,-2.7635,-2.7626,-2.7543,-2.753,-2.7519,-2.7511,-2.7636,-2.7636,-2.7715,-2.7716,-2.7716]}]]